Location: S�guret
(44.2047°N, 5.0240°E)
Time: 15:12:01
(UTC+00:00)

Daily predictions for brighter satellites

Satellite Brightness Start Highest point End
(mag) Time Altitude Azimuth Time Altitude Azimuth Time Altitude Azimuth
SL-16 R/B 2.3 17:48:36 10° S 17:54:09 60° ESE 17:59:45 10° NNE
Cosmos 2263 Rocket 2.4 17:49:55 10° NNW 17:55:30 77° WSW 18:01:02 10° SSE
Cosmos 1437 2.8 17:52:51 10° NNW 17:55:44 72° W 17:58:36 10° S
Cosmos 968 Rocket 3.6 17:51:13 10° NNW 17:56:26 57° ENE 18:01:36 10° SE
ARGOS 3.7 17:51:30 10° SE 17:56:27 38° ENE 18:01:25 10° N
Cosmos 1486 Rocket 4.2 17:54:59 10° NNW 18:00:11 54° ENE 18:05:22 10° SE
USA 234 4.1 17:55:09 10° ENE 18:00:41 29° SE 18:06:12 10° S
Cosmos 1515 4.2 17:57:07 10° N 18:00:43 37° ENE 18:04:17 10° SE
Okean 1 3.8 17:57:01 10° N 18:00:49 38° ENE 18:04:34 10° SE
Cosmos 1633 Rocket 3.1 17:57:26 10° S 18:01:47 60° E 18:06:09 10° NNE
Cosmos 2184 Rocket 4.0 17:55:43 10° S 18:01:50 70° E 18:08:01 10° NNE
Cosmos 1939 Rocket 4.3 17:59:00 10° S 18:02:40 43° W 18:06:22 10° NNW
SeaSat 1 3.2 17:59:22 10° NE 18:03:45 31° ESE 18:08:04 10° S
Cosmos 1707 Rocket 3.6 17:59:58 10° N 18:04:24 89° WSW 18:08:44 10° S
CZ-4 R/B 1.2 18:03:52 10° SSE 18:07:40 64° ENE 18:11:33 10° N
H-2A R/B 2.2 18:02:17 10° SSE 18:07:41 67° ENE 18:13:06 10° N
CZ-2C R/B 3.3 18:04:01 10° NNE 18:08:55 33° E 18:13:42 10° SSE
SAR-Lupe-4 4.1 18:08:09 10° NNE 18:11:29 36° E 18:14:48 10° SSE
IRS-1C Rocket 4.1 18:06:13 10° SSE 18:11:29 86° ENE 18:16:48 10° NNW
Gbstr 26 Del rocket 4.2 18:08:52 10° W 18:12:56 39° N 18:17:50 10° ENE
Meteor 1-20 Rocket 4.2 18:08:36 10° S 18:14:03 88° ESE 18:19:35 10° N
SL-4 R/B 3.2 18:12:49 10° NW 18:15:49 24° N 18:18:38 10° ENE
ATLAS CENTAUR R/B 1.5 18:19:47 10° S 18:23:11 39° ESE 18:26:37 10° NE
FALCON 9 DEB 4.1 18:20:49 10° NW 18:24:00 34° NNE 18:26:13 16° E
Cosmos 1354 Rocket 4.3 18:21:48 10° N 18:26:52 46° ENE 18:31:52 10° SE
Okean-O 2.6 18:23:03 10° SSE 18:27:29 87° ENE 18:31:56 10° NNW
Cosmos 44 Rocket 3.4 18:22:53 10° NW 18:28:10 87° NE 18:33:21 10° SE
ERS-2 2.0 18:25:10 10° NNE 18:28:49 66° ESE 18:32:26 10° S
CSL-04 Rocket 3.8 18:23:26 10° SSE 18:28:51 57° ENE 18:34:15 10° N
CSL-04 Debris 4.2 18:24:51 10° SSE 18:30:11 63° ENE 18:35:36 10° N
Cosmos 1844 Rocket 3.0 18:25:09 10° NNW 18:30:30 46° ENE 18:35:51 10° SE
Cosmos 2084 Rocket 3.5 18:26:11 10° NNW 18:30:32 67° NE 18:34:58 10° SE
SAR-Lupe-1 4.0 18:27:23 10° NNE 18:30:59 66° ESE 18:34:31 10° S
Cosmos 1666 3.7 18:30:03 10° SE 18:33:05 24° E 18:36:08 10° NE
HJ-1C 3.2 18:32:08 10° SSE 18:35:26 76° ENE 18:38:45 10° N
Cosmos 2341 Rocket 4.2 18:30:58 10° SSE 18:36:56 47° E 18:42:53 10° NNE
Cosmos 1503 Rocket 3.9 18:31:58 10° NNW 18:37:08 64° ENE 18:42:15 10° SSE
Meteor 1-5 Rocket 4.4 18:32:17 10° SSE 18:37:16 42° E 18:42:25 10° NNE
PSLV R/B 4.1 18:35:50 10° N 18:39:56 73° WNW 18:43:58 10° SSW
Cosmos 1470 Rocket 3.6 18:36:30 10° S 18:40:59 89° E 18:45:27 10° N
Cosmos 1844 4.0 18:36:44 10° NNW 18:42:21 48° ENE 18:46:58 15° SE
Cosmos 2360 Rocket 2.1 18:37:56 10° SSW 18:43:31 67° ESE 18:49:09 10° NNE
CZ-4B R/B 4.1 18:41:26 10° NNW 18:43:46 20° WNW 18:46:07 10° WSW
Ariane Rocket 3.9 18:42:04 19° ESE 18:44:26 27° ENE 18:48:41 10° N
Cosmos 2278 Rocket 3.9 18:43:58 10° N 18:47:19 16° NE 18:48:35 15° ENE
Cosmos 1500 3.1 18:47:59 10° S 18:51:42 88° W 18:55:28 10° N
Cosmos 2333 Rocket 2.7 18:48:40 10° S 18:53:44 35° ESE 18:58:52 10° NE
Meteor 2-4 Rocket 3.7 18:48:45 10° N 18:54:37 76° E 19:00:32 10° SSE
Cosmos 1703 Rocket 3.6 18:50:27 10° N 18:54:48 57° E 18:59:05 10° SSE
Cosmos 2218 Rocket 4.3 18:49:35 10° SSE 18:55:32 43° E 19:01:30 10° NNE
SL-08 RB Rocket 3.6 18:51:33 10° SSE 18:56:04 90° NE 19:00:39 10° NNW
Cosmos 1689 Rocket 3.5 18:54:33 10° N 18:57:16 38° WNW 18:59:58 10° SW
Cosmos 1933 Rocket 3.6 18:57:33 10° S 19:01:54 82° W 19:06:18 10° N
BREEZE-M DEB (TANK) 3.9 19:02:07 10° SSW 19:03:36 26° S 19:03:36 26° S
Aureole 2 Rocket 3.2 19:03:10 10° NW 19:05:30 34° WSW 19:06:52 19° SSW
Resurs 01 Rocket 3.4 19:12:41 17° NE 19:12:41 17° NE 19:14:18 10° NNE
Cosmos 2242 Rocket 3.6 19:08:21 10° N 19:12:52 81° W 19:17:19 10° S
Cosmos 2322 Rocket 3.4 19:08:20 10° SW 19:13:39 43° WNW 19:19:01 10° NNE
Lacrosse 4 Rocket 2.3 19:11:30 10° S 19:14:29 33° SSE 19:14:29 33° SSE
Abrixas rocket 3.5 19:14:31 10° WNW 19:16:07 24° NNW 19:16:07 24° NNW
Cosmos 1959 Rocket 4.4 19:11:43 10° S 19:17:40 60° E 19:23:40 10° NNE
Helios 1A Rocket 4.3 19:14:44 10° S 19:18:33 39° W 19:22:22 10° NNW
SME Rocket 4.0 19:11:20 10° NNE 19:19:13 62° E 19:24:20 10° S
Cosmos 192 4.2 19:16:07 10° S 19:20:56 63° ESE 19:25:49 10° NNE
SJ-6B 2.7 19:22:30 54° SE 19:23:20 74° ENE 19:27:23 10° N
COSMOS 2428 2.9 19:18:22 10° S 19:23:44 45° ESE 19:24:51 40° ENE
GP-B 4.0 19:23:13 10° SSW 19:27:32 50° W 19:31:52 10° NNW
MOS 1 4.2 19:25:33 33° SE 19:28:09 66° ENE 19:33:47 10° N
ASTEX 1 3.3 19:23:25 10° NNE 19:28:17 62° E 19:30:11 35° SSE
Meteor 1-23 Rocket 4.5 19:25:01 10° N 19:30:22 44° ENE 19:30:27 44° ENE
Cosmos 2219 Rocket 2.1 19:25:11 10° S 19:30:40 61° ESE 19:36:12 10° NNE
Meteor 1-11 Rocket 3.6 19:25:13 10° S 19:30:54 70° E 19:36:31 10° NNE
MetOp-A 4.2 19:26:56 10° S 19:32:17 78° WSW 19:37:41 10° NNW
OBJECT-B 2.6 19:36:25 25° N 19:36:25 25° N 19:37:52 10° N
Cosmos 1241 Rocket 4.5 19:28:02 10° NNW 19:34:39 76° NE 19:36:55 43° SE
Resurs 1-3 4.1 19:38:47 46° NNE 19:38:47 46° NNE 19:42:08 10° N
SL-16 R/B 4.4 19:34:06 10° WSW 19:38:41 25° NW 19:43:17 10° N
SeaSat 1 3.7 19:36:42 10° NNE 19:41:18 40° NW 19:45:52 10° WSW
SJ 16-02 2.9 19:37:24 10° N 19:39:34 24° NNE 19:39:34 24° NNE
Okean 1-7 4.0 19:37:46 10° NNW 19:41:57 46° W 19:45:45 12° SSW
USA 234 3.2 19:39:53 24° NE 19:44:09 85° NW 19:50:42 10° SW
Cosmos 1066 Rocket 4.1 19:38:36 10° N 19:44:20 75° E 19:45:41 53° SSE
Meteor 1-13 Rocket 4.4 19:38:46 10° NNW 19:44:44 80° W 19:48:31 23° S
IRS-1A Rocket 4.2 19:46:43 36° S 19:49:08 83° WSW 19:54:44 10° NNW
CZ-2C R/B 4.2 19:44:14 10° N 19:49:12 36° WNW 19:54:02 10° SW
Cosmos 2322 3.8 19:44:58 10° SSW 19:50:41 76° WNW 19:56:27 10° NNE
BREEZE-M DEB (TANK) 3.2 19:48:37 10° WNW 19:51:09 47° N 19:51:09 47° N
SL-4 R/B 3.6 19:52:28 10° NW 19:54:13 26° NW 19:54:13 26° NW
Cosmos 1869 Rocket 4.3 19:52:00 10° SSW 19:56:14 51° WNW 20:00:33 10° N
Gbstr 26 Del rocket 4.3 19:56:13 10° WNW 20:00:49 39° NNE 20:00:59 39° NNE
ATLAS CENTAUR R/B 3.5 19:59:27 10° W 20:02:12 20° NW 20:03:10 18° NNW
Cosmos 1844 Rocket 4.5 20:09:31 10° NW 20:14:07 27° WSW 20:17:54 14° SSW
SL-08 R/B 4.5 20:11:58 38° SSW 20:14:38 84° W 20:21:10 10° N
SPOT 3 Rocket 4.2 20:18:38 48° NNW 20:18:38 48° NNW 20:22:22 10° NNW
Ariane Rocket 4.1 20:22:16 37° SW 20:23:12 40° W 20:28:00 10° NNW
Cosmos 2360 Rocket 4.4 20:23:39 10° W 20:28:02 23° NW 20:32:26 10° N
Cosmos 2278 Rocket 3.1 20:26:40 10° NNW 20:30:28 43° NNW 20:30:28 43° NNW
Cosmos 2333 Rocket 3.5 20:32:40 10° WSW 20:37:56 38° NW 20:43:17 10° NNE
Resurs 01 Rocket 4.1 20:50:14 18° NNW 20:50:14 18° NNW 20:51:31 10° NNW
Cosmos 1943 Rocket 4.4 20:47:01 10° N 20:48:24 15° N 20:48:24 15° N
Lacrosse 4 Rocket 4.5 20:50:41 10° WSW 20:50:57 11° WSW 20:50:57 11° WSW
COSMOS 2428 4.4 21:03:09 10° WSW 21:14:01 - NNE 21:07:14 29° WNW
Cosmos 2219 Rocket 4.2 21:10:35 10° WSW 21:15:02 24° NW 21:19:32 10° N
USA 234 4.4 21:27:15 37° NNW 21:27:15 37° NNW 21:32:36 10° W
